This is the latest recevied weather packets stored in our database for station/object F1ZFG-13. If no packets are shown the sender has not sent any weather packets the latest 10 day(s).
| Time | Temp. | Humidity | Pressure | Rain* | Wind** | Luminosity | Snow |
|---|---|---|---|---|---|---|---|
| 1778037888 | 10° C | 96% | 1008.7 hPa | 0.76 mm | - | - | - |
| 1778034413 | 10° C | 97% | 1008.9 hPa | 0.25 mm | - | - | - |
| 1778031273 | 10° C | 97% | 1009.4 hPa | 0.25 mm | - | - | - |
| 1778027834 | 10° C | 97% | 1009.6 hPa | 0.25 mm | - | - | - |
| 1778024758 | 10° C | 97% | 1010.1 hPa | 0 mm | - | - | - |
| 1778021209 | 10.56° C | 96% | 1010.6 hPa | 0 mm | - | - | - |
| 1778018023 | 10.56° C | 96% | 1010.9 hPa | 0 mm | - | - | - |
| 1778014679 | 11.11° C | 92% | 1010.4 hPa | 0 mm | - | - | - |
| 1778011163 | 11.67° C | 90% | 1010.3 hPa | 0 mm | - | - | - |
| 1778008196 | 12.22° C | 88% | 1009.8 hPa | 0 mm | - | - | - |
| 1778004815 | 13.89° C | 81% | 1009.2 hPa | 0 mm | - | - | - |
| 1778001864 | 15° C | 74% | 1008.3 hPa | 0 mm | - | - | - |
| 1777998840 | 14.44° C | 75% | 1008.9 hPa | 0 mm | - | - | - |
| 1777995338 | 15.56° C | 72% | 1008.7 hPa | 0 mm | - | - | - |
| 1777992109 | 15° C | 78% | 1008.8 hPa | 0 mm | - | - | - |
| 1777988673 | 13.33° C | 85% | 1009.6 hPa | 0 mm | - | - | - |
| 1777985631 | 16.11° C | 73% | 1008.7 hPa | 1.52 mm | - | - | - |
| 1777982383 | 16.11° C | 78% | 1009.1 hPa | 0.51 mm | - | - | - |
| 1777979406 | 16.11° C | 78% | 1009.1 hPa | 0.51 mm | - | - | - |
| 1777976170 | 13.33° C | 92% | 1009.6 hPa | 0 mm | - | - | - |
| 1777973116 | 13.33° C | 91% | 1009.6 hPa | 0 mm | - | - | - |
| 1777970021 | 12.78° C | 91% | 1009.8 hPa | 0 mm | - | - | - |
| 1777966456 | 11.67° C | 94% | 1009.7 hPa | 0 mm | - | - | - |
| 1777963489 | 11.11° C | 94% | 1009.4 hPa | 0 mm | - | - | - |
| 1777960257 | 10.56° C | 95% | 1009.7 hPa | 0 mm | - | - | - |
* Rain latest hour (hover to see other rain measurements)
** Current wind speed in m/s (hover to see current wind gust speed)